Theta_e
332 332 332 330 329 328 323 323 324 323 323 322 321 319 316 314 313 312 311 309 307 305 304 303 303 303 302 302 303 303 304 305 308 310 310 310 309 308 312 316 317 318 319 320 320 321 322 323 322 322 320 318 320 320 319 318 317 316 316 315 315 315 314 313 312 312 312 312 313 313 313 313 313 313 313 313 313 313 313 313 313 314 313 312 312
333 333 331 330 329 328 325 324 324 324 323 321 320 318 315 315 314 313 311 309 306 304 303 302 301 301 300 300 300 300 301 302 304 306 308 309 308 307 307 311 315 315 316 317 318 319 319 320 320 320 319 319 319 318 317 316 316 315 314 314 315 313 313 313 311 312 311 311 312 313 313 312 312 312 312 312 311 312 312 312 312 312 311 311 312
333 333 332 331 329 328 327 325 323 323 323 321 319 317 316 315 314 312 310 307 304 303 302 300 300 299 299 299 298 299 299 300 300 302 304 307 307 306 305 306 309 313 314 315 316 316 317 317 318 318 319 319 318 317 316 315 315 315 315 314 314 314 312 312 311 311 311 311 311 311 311 311 311 311 311 311 311 311 311 311 311 311 310 310 310
334 333 332 330 329 327 327 324 323 323 323 321 318 317 316 315 314 311 308 306 303 302 301 299 298 298 298 298 298 298 298 298 298 299 300 302 303 304 304 303 304 306 311 313 315 315 316 316 316 316 316 317 317 316 315 315 313 313 314 314 313 313 312 311 311 311 312 311 311 310 311 310 310 309 309 309 309 310 310 310 309 310 309 310 310
334 333 331 331 329 327 328 325 324 322 321 319 317 316 315 312 310 308 305 304 302 300 301 299 297 297 297 297 297 297 297 297 297 297 297 298 298 299 300 302 302 302 303 308 311 312 314 314 314 315 315 315 315 314 314 314 314 313 313 313 313 312 312 311 310 311 311 310 310 309 309 309 309 309 308 308 309 309 308 309 309 309 309 310 310
334 333 332 331 329 327 327 325 324 322 320 319 317 316 312 309 306 305 304 302 300 299 298 297 296 297 297 297 297 297 297 297 296 296 297 296 296 296 296 297 298 299 300 301 305 309 311 312 312 313 313 313 313 313 313 313 312 313 312 312 311 311 310 310 310 310 310 309 309 308 308 308 308 308 308 308 308 308 308 308 308 308 308 309 309
334 333 331 331 329 327 325 324 323 321 319 318 315 313 310 306 305 303 302 300 299 298 297 296 295 295 295 296 295 296 296 295 296 295 295 295 295 295 295 295 295 296 297 297 298 303 307 309 311 312 312 312 312 311 312 312 311 311 311 310 310 310 310 309 309 310 309 309 308 307 307 307 308 307 307 308 308 308 307 307 307 308 309 309 309
334 333 331 330 327 326 326 323 322 319 317 316 315 310 308 306 305 303 300 299 298 297 296 295 295 295 295 295 295 295 295 295 295 295 295 294 294 294 294 294 294 293 294 292 294 296 302 305 308 308 309 310 310 310 310 310 310 309 310 309 309 309 309 308 308 308 308 308 307 306 306 307 307 307 307 307 307 307 307 307 308 308 308 308 308
332 332 329 327 325 324 323 322 320 317 316 315 315 310 307 305 303 303 302 298 297 296 295 295 295 295 295 295 295 295 294 294 294 294 295 294 293 293 293 293 293 296 293 292 291 292 295 299 301 304 305 307 308 308 308 309 309 309 309 309 308 308 308 307 307 307 306 307 306 306 306 306 306 307 307 307 306 306 307 307 306 306 306 307 308
331 330 328 327 324 319 319 318 317 316 315 313 312 311 307 304 301 302 300 297 295 294 293 294 295 294 294 294 294 294 294 293 293 293 293 293 293 292 292 293 293 293 292 293 293 292 293 294 295 297 300 303 306 307 308 307 308 308 308 308 307 307 307 307 306 306 306 305 305 305 306 306 306 306 306 306 305 306 307 306 307 307 307 307 307
329 328 325 321 319 317 316 316 316 314 313 312 310 310 306 304 301 299 298 297 295 294 294 294 294 294 293 292 293 293 293 293 294 293 292 292 292 292 293 292 292 292 292 292 292 292 292 292 292 291 293 298 303 305 305 305 305 306 307 307 307 306 306 305 305 305 305 305 305 305 305 305 305 305 305 305 305 306 306 306 306 306 306 307 307
325 324 320 319 318 317 315 315 315 314 312 309 308 306 303 301 298 297 295 295 295 295 294 293 292 292 291 291 292 292 292 292 292 292 292 292 292 292 291 291 291 292 291 292 291 291 291 291 291 291 291 293 296 298 301 301 302 304 305 306 306 306 305 305 305 305 305 305 305 305 305 305 305 305 304 305 304 305 306 306 306 306 306 306 306
322 320 317 314 314 314 314 314 314 313 312 310 308 305 302 299 297 296 294 293 293 294 294 293 291 289 290 290 290 291 291 291 291 291 291 292 292 291 291 290 291 290 291 291 291 290 290 290 290 290 290 292 291 294 295 296 299 301 302 303 305 305 305 305 305 305 304 304 304 304 304 304 304 304 304 304 304 305 306 306 306 306 305 306 305
318 318 316 313 313 312 312 312 313 312 311 310 307 302 299 297 296 294 295 293 291 293 293 293 291 288 286 286 287 288 289 289 289 289 291 291 292 291 291 290 289 290 290 289 289 289 289 289 289 289 289 289 290 290 291 290 292 297 300 301 303 304 305 305 305 305 304 304 304 304 304 304 304 304 304 304 305 304 305 305 305 305 306 305 306
315 317 315 313 312 312 311 311 312 311 310 307 305 301 299 297 296 294 293 294 293 294 294 296 291 290 289 286 284 284 286 287 288 288 289 290 290 290 290 290 289 290 291 289 288 288 288 288 288 288 288 288 289 289 290 290 290 292 296 297 299 302 304 304 304 304 303 303 303 303 303 303 303 303 303 303 305 304 304 304 304 305 305 305 305
312 312 313 313 312 311 310 311 312 312 310 307 304 300 298 297 297 296 295 291 292 292 295 298 293 290 286 288 286 286 282 283 284 287 288 288 288 288 289 288 289 289 291 288 288 288 287 288 287 288 287 288 288 289 290 289 290 291 292 294 296 299 301 303 303 302 303 303 303 303 303 302 302 303 303 303 304 304 304 304 304 304 304 305 305
311 310 309 311 313 313 311 310 311 311 309 306 304 302 298 298 298 297 296 294 292 293 294 299 295 295 293 289 285 286 286 286 284 284 286 285 287 288 288 288 288 289 288 288 288 288 288 287 287 287 288 287 288 288 288 289 290 290 291 292 295 296 298 301 302 302 301 302 302 302 302 302 302 302 302 303 303 303 303 303 303 303 304 304 305
307 308 308 307 309 310 309 309 309 309 307 305 301 299 298 298 298 298 298 298 295 293 293 297 298 296 300 299 298 290 289 285 284 281 285 287 287 287 287 288 289 288 288 288 288 287 287 287 287 287 287 287 287 288 288 288 288 289 288 292 296 296 296 298 300 301 302 302 301 302 302 301 301 301 302 302 303 303 303 302 302 302 303 304 304
302 305 306 306 308 305 306 308 308 307 305 304 301 299 298 298 299 298 299 299 298 294 295 295 297 297 299 298 298 296 292 285 284 284 280 283 285 285 285 287 288 288 288 288 288 287 287 287 287 287 286 287 288 287 289 288 289 288 288 292 296 296 296 296 296 298 299 300 300 301 301 301 301 301 301 302 302 302 302 301 301 302 303 303 303
300 301 303 304 304 304 305 305 306 306 304 304 302 301 300 300 299 300 300 299 299 297 296 295 293 294 296 295 294 295 294 295 293 287 285 280 281 285 287 286 287 287 288 287 287 288 287 287 287 287 286 286 286 287 289 289 289 289 286 290 294 296 296 295 295 295 296 297 298 299 300 300 300 301 301 301 301 301 301 301 301 301 302 302 303
297 298 299 301 301 303 305 306 305 305 304 304 303 301 300 301 300 300 300 299 299 300 298 296 295 295 294 294 295 294 293 296 295 294 289 284 282 282 282 285 286 287 287 288 288 288 288 288 287 287 286 287 288 287 286 287 288 288 287 288 291 294 295 295 295 295 294 294 295 297 299 300 300 300 301 301 301 301 300 301 301 301 301 302 302
294 295 295 296 299 301 303 305 305 305 303 305 304 303 303 302 301 301 301 300 301 301 300 299 297 297 295 295 293 293 293 292 293 292 294 291 285 282 282 281 280 284 286 287 287 287 288 287 286 286 288 288 288 286 288 288 286 287 285 286 288 291 292 294 294 294 294 294 293 294 296 297 298 299 300 300 300 300 300 300 300 300 301 301 301
294 294 295 295 296 297 300 301 303 303 303 305 304 304 304 303 302 302 303 302 301 301 301 301 297 298 296 295 294 293 291 289 289 290 290 289 287 284 284 283 283 283 285 287 287 287 287 287 286 286 286 287 288 287 288 287 285 285 284 286 286 288 291 292 293 293 293 293 293 294 294 294 295 296 298 299 299 299 299 299 299 300 300 301 300
293 292 292 293 295 296 297 298 300 302 302 303 304 304 304 304 303 303 303 303 303 302 301 300 298 298 296 296 295 296 295 294 293 292 290 290 289 285 284 284 285 286 287 286 288 286 286 286 286 286 286 287 286 287 285 285 285 284 284 284 285 287 290 291 293 293 293 292 293 293 293 293 293 294 295 297 298 298 299 299 299 299 300 300 299
292 291 291 292 293 294 295 297 298 300 301 302 303 304 304 304 303 304 304 302 302 302 300 300 298 297 296 296 296 295 296 296 297 293 293 294 289 285 285 285 284 285 285 285 284 286 287 286 286 286 286 285 286 285 287 286 285 285 283 284 285 286 286 287 290 292 292 292 292 292 292 292 292 294 294 295 296 296 297 298 298 298 298 298 298
294 294 293 293 293 294 295 296 298 299 300 302 302 302 303 303 303 302 302 302 302 301 301 301 299 299 297 294 295 294 291 296 294 295 292 289 286 285 284 285 287 284 285 284 284 284 285 285 287 286 286 285 285 285 285 286 285 285 283 282 283 285 285 286 289 291 292 291 291 291 291 291 292 293 293 294 294 294 296 297 297 297 297 297 297
296 295 294 292 292 293 294 295 296 297 299 300 300 300 301 301 301 301 300 300 299 298 297 297 296 295 295 293 291 291 290 291 291 290 291 290 288 286 284 282 282 284 283 283 283 283 284 285 285 285 285 285 285 285 285 285 285 283 283 283 284 285 285 285 288 290 291 290 290 290 290 290 291 292 292 292 292 292 294 295 295 296 296 296 295
298 297 295 293 293 293 293 294 295 296 297 298 298 298 299 298 297 297 295 296 295 295 295 295 294 294 293 292 290 288 289 289 288 288 288 289 288 287 286 284 282 280 281 280 282 282 285 284 285 285 285 284 285 285 285 283 283 284 283 283 284 285 285 285 287 289 289 289 289 290 290 290 291 291 291 290 290 290 291 292 292 292 292 292 292
296 297 294 293 293 293 293 294 294 294 294 295 296 296 296 295 295 295 293 293 293 293 292 292 292 291 291 291 288 287 286 287 286 286 287 286 288 287 287 286 286 282 281 279 281 281 284 285 283 284 284 285 284 285 283 283 284 282 283 283 284 284 284 285 286 288 288 288 289 289 289 290 290 290 290 290 289 289 290 291 291 291 291 291 292
295 295 293 292 292 291 292 291 292 292 292 292 293 294 294 294 293 293 292 292 291 291 291 290 289 289 288 287 287 286 286 286 286 286 285 285 285 285 284 285 284 284 284 282 282 284 283 284 284 284 283 283 285 284 284 283 285 281 282 283 283 283 285 285 285 286 287 288 288 288 289 289 290 289 289 289 288 289 290 290 290 290 291 291 291
292 291 290 290 290 290 290 290 290 291 291 291 292 292 292 292 291 290 290 290 289 288 288 288 287 287 286 286 286 285 286 285 284 284 284 284 285 285 284 285 284 285 283 284 280 283 284 283 283 285 283 283 284 283 284 283 283 282 281 281 282 284 284 283 284 285 286 286 286 286 288 289 289 289 289 288 288 288 289 289 289 290 290 290 290
291 290 289 289 289 289 289 289 289 289 289 290 291 291 291 290 289 289 288 288 286 285 285 286 286 285 284 284 284 283 284 284 284 284 284 284 284 285 284 284 284 283 284 284 280 281 285 284 283 284 284 283 283 281 282 283 284 282 281 281 282 283 282 282 284 285 285 285 286 286 287 288 288 289 288 287 287 287 288 288 289 289 288 288 289
290 289 289 288 288 289 288 288 288 288 289 289 290 289 289 288 287 287 286 286 285 284 284 283 284 284 284 283 282 282 283 283 283 283 283 283 283 283 283 284 284 282 283 280 279 280 281 283 284 283 283 282 281 282 281 281 282 281 281 281 281 281 281 281 282 284 285 285 285 285 285 286 288 288 288 287 286 286 287 288 288 288 288 288 288
289 289 288 288 287 288 288 288 287 287 287 288 288 288 287 286 285 287 286 285 284 283 283 282 283 284 283 282 281 281 282 282 281 281 281 281 280 281 280 282 281 283 281 280 279 279 279 280 281 282 281 282 279 282 280 280 280 282 281 281 282 282 281 281 281 282 284 285 285 285 285 286 287 288 288 286 286 286 287 287 287 287 287 287 286
289 289 288 288 287 287 287 287 287 286 287 287 287 287 286 285 285 285 285 284 284 283 282 282 282 282 282 282 281 281 282 280 280 280 280 280 280 280 280 280 280 280 281 281 279 278 279 279 280 278 279 280 280 279 281 281 281 281 279 280 280 281 282 281 281 281 283 284 285 285 285 286 287 287 287 286 285 285 286 286 286 286 286 285 285
288 288 288 288 287 286 286 286 286 286 286 286 286 286 286 285 284 284 284 284 284 283 283 282 282 282 282 281 280 280 280 279 279 279 279 280 280 280 280 280 280 280 281 280 279 278 279 278 279 279 279 279 279 280 281 281 279 279 279 279 280 281 281 281 281 280 282 284 285 285 285 285 285 286 286 285 285 285 285 286 286 285 285 284 284
287 287 287 287 287 286 286 285 285 285 285 285 285 285 285 285 284 284 284 284 284 284 283 283 282 282 282 281 280 279 279 279 279 279 279 279 280 280 279 280 280 280 281 280 279 279 278 278 278 280 279 279 279 279 280 278 278 279 279 279 279 280 280 281 281 281 283 284 284 284 284 285 285 285 286 285 285 285 285 285 285 285 284 284 283
286 286 286 286 286 286 286 285 285 285 285 285 285 284 284 284 284 284 284 284 284 283 283 282 282 282 281 280 279 279 279 279 279 279 279 279 279 279 279 279 280 280 279 279 279 279 278 278 278 278 279 279 279 279 279 279 278 277 278 279 279 280 279 279 279 280 281 280 280 281 282 283 284 285 285 284 284 284 284 284 284 284 283 282 282
285 285 285 285 285 285 285 285 284 284 284 284 285 284 284 284 283 283 283 283 283 282 282 281 281 281 281 280 279 279 279 279 279 279 279 279 280 279 280 279 280 279 279 279 279 278 278 277 278 278 278 279 279 278 279 280 278 278 277 277 277 279 279 279 278 279 280 280 282 283 281 280 281 280 281 283 283 283 284 284 284 283 282 282 282
285 284 284 284 284 285 284 284 284 285 284 284 284 284 284 284 283 282 283 282 281 281 281 281 281 280 280 279 279 279 279 280 280 280 280 280 280 279 280 280 279 279 278 279 279 278 278 278 277 277 278 278 279 280 280 278 277 277 278 277 276 277 278 279 279 277 279 279 278 279 282 282 282 282 283 283 283 284 283 283 282 282 281 281 281
285 285 284 284 284 283 284 284 283 284 284 284 284 283 283 283 283 282 282 282 281 280 280 279 279 279 279 279 279 279 280 281 282 282 281 282 280 280 280 280 279 279 279 279 279 279 279 278 278 278 278 278 278 278 278 277 277 277 278 278 277 278 278 277 278 279 279 278 278 278 278 278 277 277 277 277 277 279 279 281 281 281 281 281 281
285 284 284 284 283 283 283 283 283 283 284 284 284 286 285 283 282 283 283 282 281 280 279 278 278 278 278 278 279 281 281 281 281 282 282 282 282 281 280 281 280 279 279 278 278 278 278 277 277 278 277 277 278 279 278 279 279 279 278 278 277 277 277 277 278 278 279 278 277 276 277 278 276 276 276 275 277 278 277 277 276 277 279 280 281
284 284 284 283 282 282 282 282 282 282 283 283 285 288 288 286 283 283 282 282 281 280 279 279 278 278 278 278 279 281 281 281 281 282 282 283 282 283 282 282 281 280 279 278 278 278 277 277 278 278 277 277 278 279 279 279 279 278 278 278 277 277 276 275 273 277 280 277 277 276 275 276 276 275 275 276 276 276 277 276 279 280 280 280 281
284 284 283 283 283 282 282 282 281 281 282 284 287 288 288 288 285 283 283 282 281 280 279 279 279 278 277 278 279 279 280 280 280 280 281 282 283 283 283 283 283 283 283 280 279 278 278 277 277 277 277 277 278 278 278 279 278 278 278 277 277 276 276 275 275 275 277 277 274 274 274 276 276 276 275 275 276 276 277 278 280 280 280 281 281
284 283 283 282 282 282 282 281 281 281 281 285 287 288 288 287 287 284 283 282 281 280 279 279 279 279 278 278 278 278 279 280 280 280 280 280 282 283 283 283 284 284 285 285 284 281 280 278 277 277 278 278 277 278 279 279 280 278 278 277 277 277 277 276 276 276 277 277 274 273 273 275 276 275 275 276 276 276 276 279 280 281 281 280 280
283 283 283 283 283 282 282 282 282 281 282 284 286 287 287 287 287 285 283 282 281 280 280 279 280 279 279 279 278 278 278 279 279 279 279 279 280 280 280 281 281 282 283 284 284 284 283 280 279 278 279 280 278 279 281 281 279 277 277 277 277 277 277 276 277 277 277 278 274 274 272 274 275 275 274 275 276 275 276 277 279 280 280 280 280
282 282 282 282 282 282 282 282 282 281 280 284 286 286 287 287 287 285 283 282 282 282 281 280 280 279 280 280 280 280 280 279 279 279 279 279 279 279 279 279 280 281 281 282 282 282 283 282 281 280 280 281 280 280 280 280 279 279 279 277 277 277 277 278 277 278 277 278 276 275 270 274 276 274 274 274 275 275 275 277 279 280 280 280 280
284 283 283 283 282 282 282 281 281 280 280 284 285 286 287 287 286 283 283 282 282 281 280 279 280 280 280 281 281 281 281 280 281 282 281 280 279 278 278 279 279 280 281 282 284 284 284 283 282 282 282 282 283 282 281 281 280 279 279 279 278 277 275 274 273 274 274 277 277 274 272 272 275 273 273 274 275 273 274 274 277 279 279 280 280
283 282 282 282 282 282 281 281 280 280 280 283 285 286 286 286 285 282 282 281 280 279 279 279 279 280 281 281 281 281 281 281 282 283 284 282 280 279 278 278 278 279 279 280 283 284 284 285 285 286 286 286 286 286 286 286 285 283 280 277 276 277 274 273 273 273 273 276 276 276 273 271 273 273 272 273 273 272 273 273 274 277 279 279 279
282 282 282 282 282 282 281 280 280 280 279 282 285 286 286 286 284 281 280 280 279 279 279 280 280 280 280 282 282 280 280 281 282 283 284 283 281 280 280 279 278 278 279 280 280 280 283 284 284 284 284 284 285 285 285 285 285 284 281 278 278 278 275 275 273 273 274 276 276 277 271 271 271 272 271 272 272 272 272 273 273 274 276 276 277
282 283 282 281 280 281 280 280 282 280 279 281 285 286 286 286 284 282 280 280 280 280 280 280 281 280 281 282 282 282 281 281 283 284 284 283 282 281 280 279 278 278 279 280 280 279 279 278 279 279 279 280 280 279 280 282 283 282 281 280 280 279 276 275 274 273 272 274 277 276 272 271 272 271 271 268 268 271 272 272 272 271 271 271 272
Wind_Speed
9 9 8 7 7 7 7 7 7 7 7 7 6 7 7 7 7 7 6 6 6 6 6 7 6 6 7 7 7 7 7 7 7 8 8 8 9 13 20 16 16 16 16 16 16 17 17 17 17 20 18 18 19 21 21 21 21 21 21 21 21 20 20 20 21 20 20 21 21 21 22 22 22 23 23 23 23 24 24 24 24 24 24 26 26
9 8 10 7 6 6 6 7 6 6 7 7 6 7 8 8 7 7 7 6 6 6 6 6 7 6 6 6 7 7 6 6 6 7 7 8 9 10 20 19 14 15 15 15 15 16 16 17 17 18 19 19 20 20 20 20 20 20 20 20 19 19 19 20 20 20 20 21 21 22 22 22 22 23 23 24 24 24 24 24 24 24 25 26 26
8 7 9 9 6 7 7 6 6 5 6 7 7 7 8 8 7 7 7 7 6 6 6 7 6 6 6 7 6 6 6 6 6 7 7 7 7 7 10 18 19 14 15 15 16 16 16 16 16 17 18 19 19 19 19 19 19 19 18 19 18 19 19 19 20 20 20 21 21 21 22 22 22 23 23 24 24 24 24 24 24 25 26 26 26
8 8 8 10 9 9 9 7 6 5 5 5 6 7 8 9 8 7 8 7 7 6 6 7 7 6 6 7 6 6 6 6 6 6 6 6 6 6 7 9 16 19 15 15 16 16 16 17 16 16 16 17 18 18 18 17 17 18 18 18 18 18 19 19 20 20 20 21 21 21 22 22 22 22 23 23 24 24 24 24 25 24 25 25 26
9 10 9 10 10 10 7 6 4 5 6 7 7 7 9 9 8 7 7 7 7 6 6 7 7 6 6 6 6 6 6 6 6 6 6 5 5 5 5 6 8 13 19 17 15 16 16 17 17 17 17 17 17 16 16 17 16 17 17 18 18 18 19 19 19 20 20 20 21 21 21 21 22 22 22 23 23 23 24 23 23 25 25 25 25
7 8 9 8 9 9 8 6 6 7 7 7 7 7 8 9 9 8 8 7 7 6 7 7 7 7 6 5 5 5 5 6 5 5 5 5 5 4 4 5 5 6 7 15 17 15 16 17 16 17 16 16 16 16 15 15 16 16 17 17 17 18 18 19 19 19 20 20 20 20 20 20 21 21 22 22 22 22 23 22 23 24 25 25 25
7 7 9 7 8 9 8 6 6 7 7 6 5 7 8 9 8 9 8 7 6 6 7 7 7 7 6 5 5 5 5 5 5 5 5 5 5 5 4 4 4 4 5 5 11 16 16 16 16 17 17 16 16 15 15 15 14 15 16 16 17 17 17 18 18 18 19 19 19 19 19 20 20 20 21 21 22 22 22 23 24 25 25 25 25
9 8 10 8 10 9 8 7 9 7 7 8 4 6 7 8 8 9 10 8 8 7 7 8 7 8 6 5 5 5 5 5 5 6 5 5 5 5 5 5 4 4 5 6 6 10 15 16 17 17 18 18 17 16 14 14 13 14 14 14 16 16 16 17 17 17 18 18 18 18 19 19 19 20 20 20 21 21 22 23 23 24 24 25 25
6 7 8 8 7 8 7 9 9 8 8 7 5 4 7 7 7 6 8 10 8 9 8 8 7 8 7 6 5 5 5 5 5 5 5 5 5 5 5 5 4 5 4 4 5 6 11 16 17 18 18 18 17 16 14 13 13 13 13 14 14 15 15 16 17 17 16 17 17 17 18 19 19 20 20 20 20 22 23 23 23 24 25 25 25
8 7 6 7 8 6 7 9 9 8 6 8 7 3 4 8 9 7 7 8 8 8 9 8 7 7 7 6 5 5 5 5 5 5 5 5 4 5 4 4 4 4 4 4 3 3 4 9 14 17 17 16 17 16 15 15 14 13 13 13 13 14 14 15 15 15 15 16 16 17 18 18 18 19 19 20 21 22 22 23 23 24 24 25 25
7 8 5 6 7 7 6 8 9 8 7 6 7 7 6 7 9 9 6 6 8 7 9 9 8 7 7 7 6 6 5 4 4 5 4 5 4 4 3 4 4 4 4 3 4 3 3 3 3 4 9 17 17 18 18 16 14 13 12 11 12 12 13 14 14 14 15 15 16 16 16 17 18 18 19 20 21 21 22 23 23 23 24 24 24
7 7 7 7 7 8 9 9 9 10 9 8 8 8 7 8 7 10 9 7 6 7 9 10 9 9 8 7 7 6 6 5 5 4 4 3 3 2 3 3 3 3 4 3 3 3 3 3 3 4 5 11 17 16 17 16 14 13 12 11 11 11 12 12 13 14 14 14 15 15 16 17 17 18 19 20 20 21 21 23 23 23 23 23 24
7 7 8 8 7 7 9 9 9 10 11 9 9 8 6 7 8 6 10 10 6 6 7 10 11 8 7 7 6 6 5 4 4 3 3 2 2 2 2 3 3 3 3 3 3 3 3 4 4 4 5 3 6 12 13 14 14 12 11 10 10 10 11 11 12 13 14 14 14 15 16 17 17 17 19 20 20 21 21 22 22 23 23 23 24
7 8 8 8 8 7 8 10 9 8 9 9 11 10 11 9 9 7 3 8 8 8 9 10 5 7 8 6 5 4 3 3 3 3 2 2 1 2 2 2 2 2 2 3 3 4 4 4 4 4 4 4 4 5 5 6 7 11 11 10 10 10 10 11 12 13 13 14 14 15 16 16 17 17 18 18 20 20 21 21 22 22 23 23 24
6 7 8 9 9 10 9 8 9 9 9 9 9 11 10 12 12 10 8 4 5 6 9 6 8 7 7 8 5 4 2 1 1 2 2 1 2 2 2 2 1 1 1 2 3 3 4 4 4 4 4 4 4 3 4 4 4 7 11 11 10 10 10 10 11 12 13 13 13 14 15 16 16 16 17 18 19 20 21 22 22 22 22 24 24
6 6 6 7 8 9 9 10 10 10 9 9 11 11 11 10 8 8 10 10 6 7 6 5 9 12 8 5 7 5 3 7 6 3 2 1 1 2 2 2 1 1 1 2 2 3 3 3 4 4 4 4 3 3 3 3 3 4 8 11 11 11 11 11 11 12 12 13 13 14 14 15 15 15 16 18 18 19 20 21 21 22 23 23 24
5 6 6 7 6 8 10 10 10 10 9 11 10 12 11 12 13 12 11 12 10 6 8 5 9 7 7 7 4 5 6 6 8 3 4 3 1 1 1 2 2 1 1 2 2 2 2 3 3 3 3 3 3 2 3 2 2 3 4 7 9 11 12 12 11 11 12 13 13 14 14 14 14 15 16 17 18 19 20 21 21 22 23 23 23
4 5 5 6 7 8 7 9 9 8 8 10 8 7 8 9 13 12 11 10 13 10 9 5 7 10 2 2 1 2 4 8 8 4 4 2 2 2 2 2 1 2 2 2 2 2 2 2 3 3 2 2 2 1 1 2 3 3 4 6 10 10 10 11 11 12 12 13 13 13 14 13 14 15 16 17 18 19 19 20 21 22 22 23 23
3 5 3 6 6 7 8 9 9 9 8 8 9 12 11 12 11 10 9 8 9 9 11 9 4 6 1 3 1 2 4 11 6 6 4 4 3 4 4 3 3 2 3 3 3 3 3 2 2 2 2 2 1 1 1 1 1 2 6 9 9 10 10 9 10 11 12 12 13 13 13 13 14 14 16 16 17 18 19 20 21 22 22 23 23
3 3 3 5 5 5 8 7 8 9 10 10 11 9 9 8 10 12 10 8 11 9 9 10 11 7 5 3 1 2 6 2 5 6 4 7 6 3 3 4 3 4 4 4 4 3 3 3 2 2 2 1 1 1 1 1 1 1 3 9 9 9 9 9 9 9 10 12 12 13 13 13 13 14 15 16 17 18 19 19 20 21 22 22 23
3 3 3 5 6 6 7 9 8 6 7 8 10 12 14 13 12 9 8 7 8 7 8 9 9 7 7 5 3 3 5 2 3 3 2 4 4 7 6 4 3 4 4 4 3 3 3 3 2 1 1 1 0 1 1 1 1 2 4 8 9 9 9 9 8 9 10 10 11 12 13 13 13 14 15 16 17 17 18 18 19 20 21 22 22
3 3 4 3 5 6 6 10 11 10 8 7 10 11 11 10 12 11 10 10 8 7 9 7 8 6 7 5 5 4 4 2 3 3 1 3 4 9 8 9 7 6 5 5 4 4 3 3 2 2 1 1 0 0 1 1 2 2 4 8 8 8 8 8 8 9 9 9 10 11 12 12 13 14 15 15 16 16 17 18 19 19 21 22 22
4 4 3 4 3 4 5 5 8 9 9 9 10 12 11 11 10 9 10 11 8 8 7 7 8 7 7 6 6 6 5 5 5 4 3 2 4 5 6 7 6 5 6 5 5 4 3 3 3 3 2 2 1 0 0 0 1 1 5 6 6 7 7 7 7 8 8 9 9 10 11 12 12 14 14 15 15 16 17 17 18 20 20 20 21
4 4 4 4 5 5 5 4 7 8 9 7 8 9 9 8 9 10 10 10 9 8 7 7 9 5 7 5 5 4 4 3 4 5 4 3 4 6 5 6 4 3 4 5 4 5 5 4 4 3 3 2 1 0 1 2 2 3 3 5 6 6 7 7 8 8 8 8 9 10 10 11 12 13 13 14 15 15 16 17 18 19 20 20 21
5 5 5 7 7 7 7 7 6 8 9 8 7 9 9 9 10 11 9 10 9 8 7 6 9 6 6 5 3 4 2 1 2 3 3 2 4 5 4 6 4 4 3 5 4 4 4 4 4 4 3 3 2 2 1 1 1 3 2 5 6 6 6 7 8 8 8 8 9 9 10 11 12 13 13 14 14 15 16 17 18 19 20 20 20
9 10 9 9 8 8 7 7 6 8 10 9 8 8 9 9 9 9 8 8 6 7 4 4 5 3 4 3 2 2 3 2 2 1 2 3 5 7 6 3 1 4 2 4 4 3 4 4 4 4 4 3 3 3 2 1 2 4 1 4 6 7 5 6 8 9 8 8 9 10 10 11 12 12 13 13 14 15 16 17 18 19 20 20 21
9 7 7 8 8 7 8 8 8 8 8 7 7 8 8 7 7 7 5 4 5 6 4 5 5 4 3 4 4 4 3 2 2 3 2 1 4 6 7 7 1 2 3 4 3 6 3 3 5 4 4 4 4 3 3 3 2 1 3 4 4 6 6 6 8 9 9 9 9 10 10 11 12 12 12 13 14 15 16 17 18 19 19 20 20
7 8 8 8 8 7 8 10 8 8 8 8 8 7 7 6 5 5 5 3 5 5 4 5 5 5 4 4 5 4 3 3 3 3 3 3 4 4 4 5 5 3 4 4 5 5 6 4 3 4 4 5 4 4 4 2 3 5 5 5 3 3 6 7 8 9 9 9 10 10 11 12 12 12 11 12 13 14 15 16 17 18 18 19 19
6 6 7 7 6 6 7 8 9 7 6 6 7 5 6 5 4 5 6 4 5 5 4 5 5 5 4 4 5 4 3 3 4 4 3 4 4 3 1 1 2 3 3 5 6 5 6 7 3 5 6 4 4 4 4 4 4 5 2 3 3 2 5 7 8 10 10 10 10 10 11 12 11 11 11 12 13 14 15 16 17 17 18 19 19
5 5 6 7 7 7 7 6 6 7 7 5 5 5 6 4 5 5 5 6 6 5 4 6 5 5 5 5 5 4 3 4 4 4 5 5 3 3 3 4 3 2 2 2 2 2 4 4 3 3 5 5 4 4 3 4 6 5 3 4 4 4 8 8 9 11 11 11 11 11 12 12 11 11 10 11 12 14 15 16 17 17 18 19 19
5 6 6 7 7 7 7 6 6 7 6 6 6 6 6 6 6 5 6 6 6 6 5 6 5 6 6 6 5 5 4 5 5 5 5 5 4 4 3 3 3 3 3 3 1 2 4 3 4 3 5 5 4 3 3 3 4 5 3 4 4 8 9 7 11 12 12 12 11 12 12 12 11 11 10 10 12 14 15 16 17 17 18 18 18
7 6 6 7 7 8 7 7 7 6 7 6 6 7 6 6 6 6 6 7 7 7 6 5 4 5 7 7 5 5 5 5 5 5 5 4 4 3 3 2 2 2 4 2 2 2 1 1 3 3 4 5 4 4 3 3 4 8 4 5 5 7 5 6 10 12 13 13 13 12 12 12 12 11 10 11 12 14 15 16 17 17 17 18 18
7 7 8 8 8 8 8 7 7 7 8 8 7 7 6 7 6 7 7 7 8 7 7 7 5 6 7 7 6 5 5 6 5 5 4 3 3 3 3 2 0 1 1 1 2 4 1 2 2 3 3 3 3 4 5 4 4 5 7 6 5 5 5 5 5 10 13 14 14 13 12 12 12 12 11 11 12 13 15 16 17 17 17 17 17
7 8 8 7 7 7 8 8 7 6 7 8 8 7 8 8 7 6 7 8 8 8 8 8 6 5 7 8 7 6 5 7 6 5 4 3 2 3 2 1 1 1 1 1 3 2 4 2 1 4 3 3 4 4 6 5 5 4 5 5 5 5 5 5 5 5 12 13 14 13 12 12 13 13 12 11 12 13 15 16 16 16 17 17 17
7 8 8 9 8 8 7 7 7 7 8 8 8 8 8 9 9 8 7 8 9 9 9 8 8 7 7 7 7 6 5 7 5 4 4 3 3 2 1 1 0 1 0 1 1 3 4 4 3 3 3 5 6 4 4 4 3 4 4 6 6 5 5 5 6 5 10 13 14 13 13 13 14 15 14 12 12 13 15 16 17 17 16 16 16
8 7 8 9 8 8 7 7 7 7 8 8 8 8 10 10 10 10 8 8 8 9 9 9 8 7 8 8 6 7 6 7 5 4 4 3 4 2 1 0 0 1 1 0 2 2 2 4 3 2 3 3 4 3 3 3 4 5 6 6 6 6 6 6 7 6 8 13 14 14 14 14 15 15 15 13 12 14 16 17 17 17 16 15 15
8 7 8 8 8 8 8 8 8 8 8 8 9 8 8 8 10 10 9 8 8 8 8 9 8 8 7 8 7 7 7 7 5 4 4 4 3 2 1 1 1 1 1 1 1 2 3 6 6 4 2 3 2 3 3 4 5 6 6 8 6 7 7 6 6 6 9 14 14 15 14 15 16 17 17 14 13 15 17 19 18 17 16 15 15
8 8 8 9 9 10 10 10 9 9 9 8 9 9 10 10 10 9 9 9 9 8 8 8 8 7 9 9 7 6 7 7 5 4 4 4 3 2 1 2 1 1 2 2 2 3 4 5 5 6 5 5 5 5 5 6 6 6 6 6 6 6 6 6 6 5 4 5 5 6 10 12 15 18 17 15 15 15 18 20 19 17 16 15 15
9 9 7 10 9 10 10 10 10 9 9 9 9 9 9 9 10 10 9 8 7 7 7 8 8 8 9 9 8 7 7 6 6 6 5 4 3 3 4 3 3 2 3 3 3 4 4 5 6 6 7 7 6 7 4 4 5 5 6 6 7 6 6 7 6 4 4 6 9 12 10 9 11 10 11 13 14 16 19 21 19 18 16 16 15
9 8 9 12 10 9 9 8 8 9 9 10 9 9 9 9 9 9 9 9 8 8 8 7 7 7 7 7 8 8 8 6 6 6 6 5 4 4 4 4 4 4 4 3 4 4 4 5 6 7 7 7 5 5 4 3 5 7 7 7 9 8 6 5 5 5 4 5 6 5 9 12 12 14 15 16 19 20 21 20 20 18 16 16 16
7 6 5 8 8 9 8 7 8 7 8 8 8 10 10 9 10 11 10 10 10 10 9 9 7 8 7 7 8 8 8 8 9 7 6 5 4 3 3 4 5 4 3 3 3 3 3 5 7 7 8 8 7 6 7 7 8 10 5 5 7 7 5 6 7 6 7 7 7 6 6 5 5 5 5 6 7 11 14 19 15 18 18 16 14
7 6 5 7 7 8 7 7 6 6 7 6 9 15 13 12 10 8 9 9 10 10 10 8 7 7 7 7 7 9 10 9 9 9 9 9 8 6 3 4 3 3 4 4 5 4 5 7 8 7 8 8 8 8 9 9 7 6 6 6 9 8 5 8 8 7 6 7 6 7 6 4 5 5 5 7 6 7 6 8 7 9 11 13 15
8 7 7 9 9 8 8 9 9 7 6 7 14 14 12 13 11 10 10 9 8 8 9 9 8 8 7 6 6 8 8 7 7 10 10 11 11 12 12 11 8 5 4 6 6 6 7 9 9 7 8 10 11 10 9 10 8 8 7 6 8 7 7 8 11 6 6 8 6 5 6 3 4 7 7 7 7 7 7 8 13 15 15 15 16
6 6 8 9 9 7 6 5 5 6 6 7 11 11 12 13 10 10 7 8 7 8 8 10 7 8 9 7 5 5 5 6 5 5 8 11 12 13 13 14 14 16 14 9 7 7 8 9 9 9 8 11 12 10 9 9 9 8 7 7 9 9 10 9 10 10 1 7 4 5 7 3 3 7 8 7 7 7 8 12 17 16 15 15 17
7 8 6 8 8 7 7 7 7 7 6 8 10 9 10 13 13 11 8 8 9 8 9 10 11 8 7 6 6 4 4 9 6 4 5 5 10 13 13 14 17 17 18 19 18 13 8 9 10 12 11 10 12 13 10 9 8 9 8 8 9 8 9 9 11 8 3 5 2 4 7 6 3 6 8 8 7 7 8 13 17 18 17 16 17
7 6 6 7 6 6 7 7 5 5 4 7 11 11 12 13 14 11 7 8 8 8 10 10 7 8 10 9 8 5 4 5 5 6 5 5 5 5 6 7 8 11 16 21 22 24 18 12 11 13 15 10 13 14 11 7 9 9 9 10 9 9 9 11 9 7 3 2 4 3 6 8 5 7 10 7 5 5 6 10 16 16 16 16 18
9 9 9 9 7 6 5 6 6 6 6 11 12 13 13 12 13 7 6 6 5 5 6 9 10 10 8 7 7 7 7 5 5 7 5 5 5 5 7 9 8 8 8 10 12 11 11 11 13 15 16 13 12 12 11 8 9 9 9 10 10 8 8 8 9 8 7 6 4 5 11 10 4 6 7 5 5 7 5 9 14 16 18 18 19
4 5 4 5 7 7 7 6 5 6 5 13 13 12 12 11 10 3 3 4 5 5 6 7 8 6 6 7 6 5 6 6 8 13 9 4 5 8 10 10 10 9 10 10 12 11 10 10 11 13 13 13 13 12 11 9 7 8 9 9 8 7 8 10 12 9 10 7 8 8 9 10 5 5 7 6 6 7 6 5 11 16 17 18 18
5 6 6 5 5 6 6 6 6 5 5 10 13 12 12 13 8 3 4 4 4 5 5 5 6 5 6 6 6 5 5 5 7 12 13 11 8 9 10 12 11 9 11 7 11 16 19 21 22 23 25 26 26 27 27 27 19 12 7 9 11 6 7 11 12 10 9 6 7 9 8 9 6 6 7 6 5 7 7 7 8 14 18 17 14
7 6 4 4 4 4 5 6 6 5 5 7 12 13 14 14 9 6 4 4 4 4 4 3 3 4 5 6 5 5 6 5 7 11 13 11 9 9 9 11 13 12 9 4 5 7 15 20 23 24 25 25 24 25 25 25 24 18 12 13 12 8 11 11 13 10 10 9 9 6 3 9 4 4 5 5 6 6 7 7 7 7 8 6 9
5 4 5 5 5 4 4 5 5 6 5 7 12 13 14 14 10 6 6 5 5 4 4 4 3 3 4 5 8 7 6 6 10 12 14 11 9 8 8 9 12 13 8 6 9 9 7 6 9 9 11 14 12 11 12 20 21 17 13 14 11 11 12 12 11 10 9 10 6 8 8 7 5 5 4 2 6 5 5 6 2 1 1 1 5
Wind_Direction
173 176 177 178 184 172 164 167 165 158 149 149 143 127 120 117 118 114 107 100 91 84 78 75 78 74 74 70 70 71 71 71 68 65 64 59 47 28 21 40 57 65 65 78 81 82 80 80 78 75 75 73 70 69 68 66 63 60 58 57 57 56 55 54 52 50 48 46 45 43 42 40 38 37 35 33 32 29 27 26 24 22 19 19 16
182 178 172 171 190 166 177 171 166 157 150 149 141 132 131 130 121 120 113 104 96 89 87 78 74 72 72 75 73 75 74 73 72 72 67 61 51 41 31 25 55 71 70 74 77 81 84 84 85 84 76 74 72 70 65 62 61 60 59 58 57 56 55 54 51 50 48 46 45 43 41 40 37 35 34 31 31 28 25 25 22 20 19 18 15
182 177 176 170 181 177 182 170 164 157 151 143 144 140 134 130 131 130 125 113 105 100 98 91 83 77 73 75 76 79 77 75 78 79 77 72 70 62 39 35 30 58 76 77 79 77 77 78 79 76 77 75 73 70 68 65 62 60 57 58 57 57 54 52 51 50 48 46 44 42 41 39 37 35 33 32 29 27 25 23 20 19 17 17 15
180 164 174 175 174 186 183 172 165 149 143 135 136 141 136 131 130 121 117 118 115 110 105 100 93 84 78 75 74 77 80 82 80 79 84 89 88 77 67 47 38 31 47 75 73 75 74 71 72 75 77 76 74 73 71 67 63 64 61 56 55 55 54 52 50 49 47 46 43 41 40 38 36 34 31 31 27 26 23 20 19 17 16 15 14
192 170 170 178 178 181 169 164 141 123 120 137 144 142 133 127 121 123 117 114 110 109 108 104 102 93 84 79 80 75 78 84 85 85 90 94 97 95 89 74 56 38 32 37 75 75 75 71 70 71 71 74 77 75 73 72 66 59 60 57 54 52 52 51 49 47 46 45 43 41 39 37 36 32 31 29 27 24 22 18 17 16 15 14 12
187 180 171 170 176 182 175 157 144 143 142 149 158 150 136 129 129 125 119 121 123 124 117 110 107 102 90 81 79 80 77 76 74 80 85 89 84 89 90 99 86 69 46 37 38 71 73 73 74 75 72 71 72 74 70 65 66 62 56 56 54 52 50 49 48 47 46 43 43 40 39 37 35 33 31 28 25 23 21 16 16 15 13 12 11
171 174 191 168 165 178 181 169 151 152 157 152 151 143 139 135 136 128 130 122 122 118 114 109 108 102 97 93 87 89 87 86 85 80 79 76 77 70 76 74 89 103 91 64 41 40 62 73 74 71 68 67 67 66 67 66 64 64 59 54 53 53 51 51 49 48 47 44 41 40 38 36 34 31 30 26 23 21 17 16 15 14 12 11 8
178 176 187 175 178 176 176 159 157 149 154 140 144 146 143 132 132 136 131 129 127 120 113 110 105 100 94 92 91 89 88 80 74 71 67 70 67 66 63 61 60 74 84 82 72 57 61 71 70 67 65 63 62 60 62 64 61 61 59 56 55 53 52 49 48 47 46 43 40 38 36 34 33 31 27 24 22 18 16 16 14 13 11 9 7
171 178 167 166 167 167 159 157 150 151 157 151 147 161 143 128 125 131 133 134 130 121 113 108 106 100 96 91 85 85 78 77 77 80 70 70 70 74 71 67 60 54 63 80 93 83 65 64 56 55 59 62 64 63 59 60 60 62 61 57 55 54 50 48 46 45 43 43 40 37 35 32 30 27 24 21 19 17 16 14 12 11 8 7 6
177 183 182 169 170 146 145 152 148 149 150 147 134 138 147 137 126 129 130 128 133 131 120 111 107 103 96 88 84 79 77 78 79 76 73 70 67 62 64 62 57 54 58 62 65 80 90 84 76 62 58 65 67 67 61 53 52 58 60 59 57 56 49 48 46 44 42 39 38 35 34 31 28 26 21 18 18 16 13 12 10 9 7 5 5
177 182 169 142 147 140 141 151 154 148 146 142 137 150 158 147 130 126 116 117 130 132 123 116 107 101 95 86 77 72 71 71 74 73 73 69 66 65 63 63 57 54 54 57 60 55 55 57 65 80 64 62 62 57 56 54 49 48 52 58 57 53 51 49 44 42 40 37 36 35 32 29 26 22 18 17 16 15 11 10 10 9 5 4 3
174 164 161 159 152 158 158 158 157 158 153 150 152 157 160 133 123 127 116 97 102 125 124 116 105 98 93 83 73 72 69 70 73 80 86 94 95 95 85 87 76 64 61 58 55 49 51 56 63 62 73 66 64 62 56 49 51 46 39 51 52 54 51 47 44 41 39 35 33 32 30 28 25 20 17 14 13 12 9 9 9 7 4 2 360
176 167 161 151 149 145 157 167 168 166 164 165 163 145 135 123 121 127 128 121 118 141 131 124 119 104 98 94 87 72 70 73 83 82 93 111 116 109 108 99 89 76 64 62 55 50 48 47 52 53 51 48 69 67 63 50 46 51 42 43 49 49 47 45 41 40 37 31 28 28 28 24 22 18 14 12 11 8 8 6 7 6 3 1 358
175 171 156 149 148 152 155 165 168 174 171 160 154 142 138 138 137 107 103 130 140 160 153 130 125 144 139 129 104 91 72 76 82 96 77 78 85 96 99 99 93 87 93 76 58 50 46 47 46 49 46 51 51 59 60 55 41 46 52 41 39 39 39 39 35 35 34 30 22 24 26 22 18 15 11 9 8 6 5 5 5 5 1 359 358
176 177 166 164 160 159 163 157 171 168 161 156 152 152 154 157 159 143 142 110 126 165 168 166 135 137 124 117 143 146 151 161 132 133 117 97 105 98 86 89 75 85 83 82 70 54 45 48 52 48 44 45 46 52 72 70 23 39 38 38 34 30 31 31 29 29 27 28 20 19 22 19 13 10 8 5 6 4 3 2 3 4 359 358 357
166 168 173 177 170 161 160 166 171 172 166 154 161 161 160 164 158 151 143 134 151 179 203 175 146 143 152 183 160 163 161 209 179 153 132 107 108 133 122 116 124 124 106 81 68 67 60 52 54 50 48 46 40 44 59 46 32 51 33 13 19 22 23 27 24 22 22 22 18 15 18 16 9 5 3 2 3 1 1 2 3 359 359 357 355
158 166 171 180 173 172 173 174 170 170 165 167 165 172 169 170 164 158 171 151 160 165 195 186 171 182 135 141 143 208 219 162 148 164 163 170 168 107 129 167 165 173 121 98 101 97 84 68 63 58 53 54 47 49 56 40 28 23 30 360 10 20 16 16 19 19 18 18 15 10 11 10 4 1 358 359 358 358 360 360 360 358 356 355 353
156 157 169 173 171 175 172 172 170 168 169 173 157 147 160 161 170 170 174 169 151 160 174 194 195 201 246 15 24 183 169 139 149 177 166 210 149 179 186 208 178 172 160 151 159 138 120 104 80 71 62 56 65 51 81 68 20 40 29 1 14 17 18 15 12 13 15 13 12 5 4 3 359 356 356 355 356 356 357 358 356 355 353 352 351
118 164 137 179 172 168 172 173 167 166 159 156 165 172 174 177 169 175 180 165 157 159 172 173 184 227 207 180 80 299 123 142 192 110 174 191 198 192 205 203 207 203 180 181 172 161 152 141 122 99 81 64 52 38 54 71 61 61 32 6 8 13 12 15 13 11 13 9 7 1 357 356 353 353 352 353 353 355 354 354 352 351 350 348 348
143 131 145 169 169 170 170 171 171 169 164 170 169 173 177 187 187 180 175 176 173 167 171 170 182 195 182 173 219 284 159 205 164 168 152 158 183 183 199 184 203 212 198 188 187 177 157 145 146 153 101 76 29 23 10 21 3 25 26 1 2 4 5 7 9 9 11 8 2 354 351 349 349 349 350 351 351 352 352 350 347 346 345 346 346
125 124 130 159 170 175 176 169 172 178 183 176 175 177 181 180 185 187 181 184 186 176 169 179 188 186 157 193 191 192 173 223 183 212 144 151 158 175 179 175 218 219 203 189 186 160 167 149 137 131 116 92 77 21 3 351 16 14 20 356 352 354 355 357 1 4 8 3 356 347 344 345 346 346 347 348 349 349 347 344 344 343 343 344 344
139 116 138 116 162 180 185 183 178 171 182 186 174 176 183 190 189 189 180 186 189 187 184 183 187 178 170 166 176 173 169 177 205 204 162 183 160 182 178 169 187 203 189 188 178 167 161 147 154 162 188 132 80 62 349 353 22 4 349 337 338 341 343 345 353 1 358 355 347 339 339 341 341 342 344 346 346 344 341 340 341 341 342 342 341
151 152 148 149 144 171 184 186 176 173 182 188 179 177 184 190 191 195 194 191 187 187 187 186 179 183 169 182 187 182 175 187 190 189 173 161 120 149 157 178 177 168 181 182 172 179 167 168 174 174 183 182 138 222 270 2 200 55 331 311 320 324 334 339 349 350 348 341 334 332 335 336 335 338 340 342 342 340 339 339 340 340 340 338 336
157 151 157 158 169 186 192 171 183 178 188 193 184 182 180 183 189 198 196 190 186 187 187 175 178 182 173 188 194 184 199 204 184 177 189 171 151 147 158 157 189 152 143 168 176 181 182 187 187 182 176 165 179 142 243 248 167 102 324 309 299 313 329 337 342 341 334 328 323 328 330 330 330 332 336 337 337 338 339 339 340 339 336 334 333
183 175 174 171 177 180 178 184 181 187 187 192 192 186 184 191 195 196 191 183 183 183 179 175 177 183 171 181 196 181 173 34 114 163 184 159 129 133 135 162 160 131 151 169 184 187 197 193 186 185 173 186 166 199 229 257 249 142 340 298 286 288 314 326 328 322 318 316 319 322 323 323 322 326 332 334 336 338 338 339 340 335 331 330 333
186 196 185 177 185 184 179 183 182 182 186 191 190 190 188 193 193 190 180 181 169 169 159 138 143 101 142 136 91 95 79 55 48 102 124 120 129 141 138 155 190 148 138 188 179 167 198 191 187 178 177 182 174 199 217 227 255 147 257 290 281 261 283 312 313 309 309 312 314 315 315 314 315 321 328 333 335 336 337 338 335 330 329 329 332
193 190 172 178 182 176 173 182 188 189 188 189 185 182 186 187 180 174 159 143 133 141 110 123 120 121 102 113 106 81 82 56 60 58 45 99 139 148 146 145 159 175 171 181 187 210 185 165 181 183 183 178 185 192 212 223 233 182 285 272 270 247 245 282 298 304 307 308 307 308 308 307 309 317 326 331 332 334 335 332 329 327 328 330 333
186 178 177 173 180 178 173 182 186 185 183 188 182 178 179 173 149 149 124 89 122 119 109 108 111 112 105 91 96 88 77 67 66 68 66 54 90 131 152 155 157 195 179 195 188 223 191 163 172 188 182 184 186 199 189 180 251 181 222 245 247 265 244 252 284 297 298 297 297 300 301 300 304 312 323 328 330 331 329 325 324 324 326 328 331
177 174 167 170 169 166 172 174 177 175 180 180 174 164 159 153 144 134 127 119 115 120 115 119 115 109 98 95 101 104 97 98 76 73 68 52 48 53 56 135 207 206 188 204 210 208 182 170 166 191 185 188 186 194 189 219 181 163 249 259 257 248 254 248 272 286 287 286 290 292 291 292 298 308 318 325 327 324 320 319 321 323 324 326 327
153 146 158 171 178 174 178 182 174 166 169 158 152 147 152 143 121 125 125 127 119 109 107 111 113 108 106 101 110 106 97 88 81 65 55 49 61 52 47 34 17 338 316 304 307 154 138 172 192 150 172 193 190 197 195 221 154 181 224 242 242 243 250 256 270 275 271 274 281 283 282 286 294 303 313 320 319 315 315 317 320 320 321 323 323
146 153 158 168 172 172 178 177 172 169 159 152 155 151 154 137 133 126 131 134 128 119 112 115 121 126 125 115 111 107 101 96 88 72 56 47 50 58 47 25 25 7 354 330 287 20 123 160 203 123 157 185 192 192 198 225 179 192 224 246 240 246 253 263 264 258 255 259 268 272 276 282 290 297 307 310 309 309 312 316 316 316 317 318 318
165 162 170 176 175 177 179 173 169 166 154 150 160 155 151 141 144 138 141 137 127 127 125 122 130 132 132 124 119 119 112 100 86 77 72 52 37 52 42 31 35 23 1 328 292 310 75 93 120 114 150 167 181 198 223 209 186 182 237 243 247 249 254 250 252 244 242 247 254 265 274 280 285 291 296 299 302 307 309 310 311 312 313 312 315
165 171 179 178 177 179 174 174 173 170 161 156 159 157 153 143 142 133 138 137 135 132 131 128 132 136 128 121 116 110 117 106 95 90 85 84 62 54 42 29 28 52 4 307 284 281 100 64 127 152 148 154 204 201 219 223 207 211 216 232 236 238 244 248 253 246 238 238 244 255 268 276 279 283 287 291 298 303 304 305 307 308 308 309 314
169 177 177 172 172 176 178 174 174 172 160 158 162 160 153 141 129 137 145 145 140 135 137 139 139 131 127 123 119 115 103 98 97 96 102 99 86 81 78 46 5 48 17 1 288 277 273 128 187 115 160 179 227 213 195 220 232 220 221 226 233 230 238 246 245 248 243 234 236 248 260 270 277 278 281 286 293 299 301 301 301 302 303 307 314
171 178 175 172 174 175 176 174 174 173 163 162 166 161 151 148 144 147 154 151 147 145 146 146 143 137 128 124 122 109 95 97 97 96 97 96 80 78 72 65 26 329 36 336 313 276 285 281 131 175 186 197 211 224 202 206 228 238 247 248 241 238 230 233 242 246 250 247 248 250 257 266 273 277 276 279 285 293 295 295 294 295 298 305 312
175 179 179 173 168 171 172 176 176 175 168 166 166 160 154 152 150 152 152 151 149 149 147 144 144 142 135 121 109 107 104 103 110 112 105 101 101 97 116 127 139 299 335 125 299 290 305 290 270 203 228 205 221 216 217 217 224 237 240 245 238 235 234 233 235 239 245 251 256 256 257 262 270 273 273 273 277 285 289 290 288 290 296 303 309
172 166 173 172 170 171 178 180 181 179 176 171 166 157 152 151 152 152 153 149 147 148 146 145 142 134 124 113 112 112 122 121 125 126 131 120 114 117 142 171 166 237 172 222 237 272 265 267 277 279 262 248 241 239 215 225 243 244 236 238 234 233 237 233 232 238 246 252 256 255 255 257 263 269 269 268 271 278 284 286 285 288 294 301 305
171 175 166 179 181 184 186 187 185 183 176 173 166 159 158 157 154 152 148 148 149 145 137 133 130 126 124 117 120 124 138 143 142 136 125 130 135 164 192 212 210 206 219 211 221 224 245 254 269 281 273 255 252 234 212 224 241 253 259 247 236 227 232 240 236 230 223 225 228 243 250 252 255 262 265 264 264 271 281 283 282 284 289 295 299
176 180 165 179 186 189 189 185 185 180 173 171 168 164 154 151 151 153 150 142 134 129 127 126 121 117 119 123 127 136 144 145 145 142 136 146 165 193 205 209 212 215 226 227 226 229 232 252 262 261 270 262 250 261 246 204 218 237 253 272 263 242 231 234 244 230 211 228 237 235 233 228 233 239 253 257 259 266 273 278 279 278 284 289 294
184 177 175 187 187 187 187 186 185 177 174 173 167 158 156 154 151 147 148 147 140 127 119 117 115 114 112 112 128 146 152 154 147 142 150 164 175 194 211 198 207 214 227 236 241 235 232 243 255 265 264 270 260 252 240 221 248 251 235 236 257 261 249 241 224 218 234 230 233 234 241 244 245 251 258 265 268 267 262 266 273 275 274 280 285
187 172 164 175 180 187 184 182 184 183 179 174 166 160 153 152 155 156 155 150 145 139 131 124 119 120 122 130 141 153 158 156 152 157 165 170 175 198 208 196 206 214 227 234 244 244 253 255 263 262 265 266 262 259 256 238 232 252 243 218 249 255 256 263 256 245 240 242 248 244 240 215 222 231 227 238 246 256 255 253 257 263 268 270 280
185 163 143 168 185 187 187 182 185 182 185 182 170 169 169 166 163 154 151 153 150 145 137 124 120 125 131 137 150 155 163 157 163 173 187 196 206 212 207 216 211 212 220 223 235 245 252 257 258 262 269 271 265 254 259 256 258 261 258 246 257 264 262 261 267 237 215 229 232 240 240 213 215 239 236 248 252 251 240 240 236 241 253 268 285
172 167 154 173 185 190 192 191 189 192 187 186 179 172 162 159 158 154 153 151 145 142 142 140 139 143 142 143 142 159 156 164 179 194 206 211 220 222 225 226 227 221 218 232 237 229 241 255 261 260 263 268 264 261 260 271 265 255 252 252 258 262 259 271 278 275 204 186 225 243 253 225 210 240 240 245 248 245 238 236 238 243 256 270 281
169 164 175 185 184 187 188 193 192 195 199 179 174 167 159 157 154 155 146 139 144 150 155 147 124 147 157 152 143 143 164 167 167 191 214 223 227 229 232 235 234 235 232 226 233 242 239 249 261 255 254 256 267 264 266 268 267 262 252 247 252 255 263 263 264 269 248 134 186 226 256 226 207 240 246 244 241 242 243 243 245 248 255 266 278
160 174 178 170 181 183 183 183 181 183 194 182 174 170 154 151 152 154 155 153 151 158 164 162 159 146 141 141 144 162 153 175 178 184 193 220 231 237 242 246 249 246 245 244 242 238 238 249 257 263 247 251 263 265 257 260 268 267 266 264 259 257 260 264 265 273 239 154 181 241 258 254 216 244 250 245 242 242 248 252 251 253 255 262 273
165 169 171 178 176 181 184 188 182 173 172 168 175 169 169 166 159 155 159 160 163 163 166 166 142 142 157 162 164 165 161 171 185 189 202 213 214 223 234 236 237 241 242 246 247 247 244 240 246 253 256 235 250 264 270 275 274 269 277 276 278 275 269 266 276 272 271 155 187 249 273 265 226 242 252 247 243 252 251 253 253 253 256 260 271
173 176 177 179 183 178 179 177 171 172 175 171 181 184 182 174 166 146 146 154 150 139 130 140 160 162 161 161 168 176 181 171 182 188 192 204 211 232 243 251 246 240 235 232 232 234 236 237 240 248 260 258 257 269 279 278 271 275 278 278 277 273 279 292 287 268 262 239 235 227 260 270 249 251 251 251 255 262 253 264 265 262 261 264 270
128 146 156 167 174 177 176 171 168 176 169 176 183 183 180 176 162 128 116 129 133 141 147 154 157 153 150 162 172 186 188 185 191 203 204 189 225 243 252 258 258 254 251 244 250 247 239 238 241 250 259 263 265 270 274 278 280 283 284 279 278 275 275 269 266 266 256 244 216 213 248 258 228 229 258 262 260 263 261 254 264 265 263 265 266
142 162 168 171 169 167 166 173 176 177 165 176 178 176 173 168 147 113 113 109 129 143 151 155 159 153 167 177 184 192 196 208 195 206 217 213 233 241 252 260 261 263 264 265 251 254 256 257 258 260 267 272 277 279 281 280 279 273 263 270 265 258 251 262 265 264 256 235 222 218 229 257 240 226 256 257 258 263 263 263 260 267 268 265 260
159 162 143 101 105 156 164 175 180 171 162 170 176 175 171 169 143 142 133 125 136 153 157 153 151 171 183 172 180 195 207 213 185 214 223 223 235 241 247 261 268 267 272 262 248 242 247 252 259 263 267 272 276 278 280 280 280 279 274 265 263 259 259 255 265 261 269 259 245 196 189 241 248 243 265 271 270 248 249 249 244 252 259 252 254
132 108 125 129 144 122 159 163 151 157 157 169 177 179 175 166 138 141 142 149 158 173 174 167 164 184 199 200 204 212 210 212 219 223 228 221 232 238 247 259 268 273 276 290 284 284 280 271 268 267 266 267 266 266 269 271 269 268 263 267 274 262 261 261 262 273 276 263 232 167 225 248 225 240 214 279 268 250 208 238 237 142 152 227 264